Flag for South Africa Weather past 2 weeks in Durban, South Africa

Now
63 °F

Clear.


Feels Like: 63 °F
Forecast: 51 / 73 °F
Wind: 8 mph from Southwest

Location: King Shaka International Airport

Current Time: Aug 23, 2014 at 9:15:59 PM

Latest Report: Aug 23, 2014 at 8:00 PM


Visibility: 10 mi

Pressure: 29.98 "Hg

Humidity: 64%

Dew point: 50 °F

Location of DurbanLocation

Historic Weather in Durban — Graph

°F

Durban temperature yesterday

Maximum temperature yesterday: 70 °F (at 2:00 PM)
Minimum temperature yesterday: 52 °F (at 11:00 PM)
Average temperature yesterday: 63 °F

Past Weeks' High & Low Weather Summary

 TemperatureHumidityPressure
High93 °F (Aug 19, 1:00 PM)94% (Aug 9, 4:00 AM)30.51 "Hg (Aug 9, 4:00 AM)
Low45 °F (Aug 23, 5:00 AM)20% (Aug 19, 2:00 PM)29.77 "Hg (Aug 21, 3:00 PM)
Average66 °F71%30.12 "Hg
* Reported Aug 8 8:00 PM — Aug 23 8:00 PM, Durban, Weather by CustomWeather, © 2014

Note: Actual official high and low records may vary slightly from our data, if they occured in-between our weather recording intervals... More about our weather records

Advertising

Durban weather history for previous 24 hours

 ConditionsComfort  
Time TempWeatherWind HumidityBarometerVisibility
8:00 PM
Aug 23
63 °FClear.8 mph64%29.98 "Hg10 mi
7:00 PM61 °FClear.6 mph63%29.95 "Hg10 mi
6:00 PM63 °FClear.6 mph59%29.92 "Hg10 mi
5:00 PM68 °FPassing clouds.7 mph46%29.92 "HgN/A
4:00 PM68 °FPassing clouds.6 mph38%29.92 "HgN/A
3:00 PM68 °FSunny.6 mph46%29.92 "Hg10 mi
2:00 PM68 °FPassing clouds.9 mph43%29.89 "HgN/A
1:00 PM68 °FSunny.9 mph49%29.92 "Hg10 mi
12:00 PM68 °FPassing clouds.9 mph49%29.95 "HgN/A
11:00 AM66 °FPassing clouds.7 mph52%29.95 "HgN/A
10:00 AM66 °FSunny.3 mph46%29.98 "Hg10 mi
9:00 AM63 °FSunny.7 mph56%29.98 "Hg10 mi
8:00 AM57 °FSunny.5 mph67%30.01 "Hg10 mi
7:00 AM50 °FSunny.5 mph76%30.01 "Hg10 mi
6:00 AM52 °FSunny.8 mph77%29.98 "Hg10 mi
5:00 AM45 °FClear.3 mph81%29.98 "Hg10 mi
4:00 AM48 °FClear.1 mph82%29.98 "Hg10 mi
3:00 AM48 °FClear.No wind82%29.98 "Hg10 mi
2:00 AM50 °FClear.1 mph82%30.01 "Hg10 mi
1:00 AM48 °FClear.No wind82%30.01 "Hg10 mi
12:00 AM57 °FPassing clouds.3 mph63%30.01 "HgN/A
11:00 PM
Aug 22
52 °FClear.3 mph72%30.01 "Hg10 mi
10:00 PM57 °FClear.2 mph67%30.04 "Hg10 mi
9:00 PM57 °FClear.2 mph67%30.01 "Hg10 mi
Weather by CustomWeather, © 2014

See weather overviewHow to use our weather pages